Location: Sungai Laei
(2.6000°N, 113.7167°E)
Time: 13:13:26
(UTC+00:00)

Cosmos 1331 Rocket - Pass Details

Date: 22 May 2022
Orbit: 749 x 778 km, 74.0° (Epoch: 06 July)

Event Time Altitude Azimuth Distance (km) Brightness Sun altitude
Exits shadow 21:29:46 - 209° (SSW) 2,533 6.2 -11.2°
Reaches altitude 10° 21:30:29 10° 211° (SSW) 2,270 6.0 -11.1°
Maximum altitude 21:35:21 44° 282° (WNW) 1,032 4.3 -9.9°
Drops below altitude 10° 21:40:15 10° 354° (N) 2,277 6.7 -8.8°
Sets 21:42:43 0° 1° (N) 3,205 7.5 -8.2°
